Regional Weather Roundup
Issued by NWS

Home | Current Version | Previous Version | Graphics & Text | Print | Product List | Glossary On
Versions: 1 2 3 4 5 6 7 8 9 10 11 12 13 14 15 16 17 18 19 20 21 22 23 24 25 26 27 28 29 30 31 32 33 34 35 36 37 38 39 40 41 42 43 44 45 46 47 48 49 50
000
ASUS43 KDMX 290601
RWRIA

WEATHER ROUNDUP FOR IOWA
NATIONAL WEATHER SERVICE DES MOINES IA
100 AM CDT MON MAY 29 2017

NOTE: "FAIR" INDICATES FEW OR NO CLOUDS BELOW 12,000 FEET WITH NO
SIGNIFICANT WEATHER AND/OR OBSTRUCTIONS TO VISIBILITY.

* - THESE STATIONS ARE NOT NWS STATIONS...THUS NOT UNDER NWS
QUALITY CONTROL.  THEY ALSO DO NOT REPORT WEATHER SUCH
AS PRECIPITATION OR FOG.

IAZ001>003-012>014-020>022-031>034-043>046-290700-
   NORTHWEST IOWA

CITY           SKY/WX    TMP DP  RH WIND       PRES   REMARKS
CARROLL *      PTCLDY    55  48  76 W6        29.84F
CHEROKEE *     PTCLDY    52  48  87 CALM      29.87S
DENISON *      PTCLDY    57  45  62 N3        29.87S
LE MARS *      CLEAR     52  46  82 CALM      29.90R
ORANGE CITY *  CLEAR     52  46  82 W3        29.89S
SHELDON *      PTCLDY    50  45  81 SW7       29.87R
SIOUX CITY     CLEAR     56  46  69 NW5       29.88S
6HR MIN TEMP:  54; 6HR MAX TEMP:  77;

SPENCER        CLEAR     50  47  89 W3        29.85F
6HR MIN TEMP:  50; 6HR MAX TEMP:  73; 6HR PCP:  0.01;

STORM LAKE *   CLEAR     55  45  67 NW9       29.86R
$$

IAZ055>058-069>071-079>083-090>094-290700-
   SOUTHWEST IOWA

CITY           SKY/WX    TMP DP  RH WIND       PRES   REMARKS
ATLANTIC *     CLEAR     55  48  76 S6        29.85F
AUDUBON *      PTCLDY    61  46  59 CALM      29.86S
CLARINDA *     CLEAR     52  50  93 CALM      29.90F
COUNCIL BLFS * CLEAR     61  45  55 SW7       29.87S
CRESTON *      CLEAR     59  45  58 SW6       29.87F
HARLAN  *      PTCLDY    57  46  67 N12G18    29.90R
LAMONI         CLEAR     59  45  59 SW5       29.87F
6HR MIN TEMP:  59; 6HR MAX TEMP:  76;

RED OAK *      CLEAR     54  48  82 CALM      29.87F
SHENANDOAH *   CLEAR     55  48  76 SW5       29.89S
$$

IAZ047>049-059>061-072>074-084-290700-
   CENTRAL IOWA

CITY           SKY/WX    TMP DP  RH WIND       PRES   REMARKS
AMES           PTCLDY    54  48  80 SW5       29.82F
6HR MIN TEMP:  53; 6HR MAX TEMP:  76;

ANKENY *       PTCLDY    59  46  63 S3        29.84F
BOONE *        PTCLDY    55 N/A N/A CALM      29.82F
CHARITON *     CLEAR     59  45  58 W7        29.84F
DES MOINES     CLEAR     59  46  62 W7        29.84S
6HR MIN TEMP:  59; 6HR MAX TEMP:  78;

GRINNELL*      CLEAR     55  46  71 NW8       29.85S
KNOXVILLE *    CLEAR     59  45  58 SW7       29.82F
MARSHALLTOWN   CLEAR     55  45  68 W6        29.80F
6HR MIN TEMP:  54; 6HR MAX TEMP:  74;

NEWTON *       CLEAR     59  45  58 NW6       29.82S
PELLA *        CLEAR     60  46  59 SW6       29.85R
PERRY *          N/A     58  44  58 W3        29.84F
$$

IAZ004>006-015-016-023>025-035-036-290700-
   NORTH CENTRAL IOWA

CITY           SKY/WX    TMP DP  RH WIND       PRES   REMARKS
ALGONA *       PTCLDY    57  45  62 W12       29.83S
CLARION *      MOCLDY    57  46  67 W9        29.82R
ESTHERVILLE    CLEAR     54  47  77 W13       29.83S
6HR MIN TEMP:  53; 6HR MAX TEMP:  72; 6HR PCP:  0.01;

FORT DODGE *   PTCLDY    54  45  71 CALM      29.83F
MASON CITY     PTCLDY    55  43  63 W10       29.81F
6HR MIN TEMP:  53; 6HR MAX TEMP:  72;

FOREST CITY *  MOCLDY    55  37  50 NW8       29.81S
WEBSTER CITY * MOCLDY    55  45  67 SW7       29.80F
IOWA FALLS *   MOCLDY    58  47  66 W8        29.82S
$$

IAZ007>011-017>019-026>030-037>042-050>054-066-290700-
   NORTHEAST IOWA

CITY           SKY/WX    TMP DP  RH WIND       PRES   REMARKS
CEDAR RAPIDS   PTCLDY    54  47  77 NW9       29.80F
6HR MIN TEMP:  53; 6HR MAX TEMP:  74;

CHARLES CITY * PTCLDY    59  43  55 W6        29.79S
CLINTON *      CLEAR     57  53  86 W7        29.79S
DECORAH *      PTCLDY    61  43  51 VRB7      29.76F
DUBUQUE        CLEAR     53  47  79 W8        29.78S
6HR MIN TEMP:  52; 6HR MAX TEMP:  72;

MONTICELLO *   PTCLDY    59  46  63 CALM      29.79S
OELWEIN *      PTCLDY    59  43  55 NW7       29.79F
WATERLOO       CLOUDY    62  40  44 NW5       29.78F
6HR MIN TEMP:  61; 6HR MAX TEMP:  75;

$$

IAZ064-065-067-068-078-290700-
   EAST CENTRAL IOWA

CITY           SKY/WX    TMP DP  RH WIND       PRES   REMARKS
DAVENPORT      CLEAR     59  51  75 W8        29.80S
6HR MIN TEMP:  59; 6HR MAX TEMP:  76;

IOWA CITY      CLEAR     58  47  66 W6        29.82S
6HR MIN TEMP:  58; 6HR MAX TEMP:  76;

MT. PLEASANT * CLEAR     58  48  67 W5        29.83S
MUSCATINE *    CLEAR     59  48  67 W7        29.81S
QUAD CITIES    CLEAR     62  50  64 SW5       29.80R
6HR MIN TEMP:  61; 6HR MAX TEMP:  76;

$$

IAZ062-063-075>077-085>089-095>099-290700-
   SOUTHEAST IOWA

CITY           SKY/WX    TMP DP  RH WIND       PRES   REMARKS
BURLINGTON     CLEAR     63  50  62 W3        29.82F
6HR MIN TEMP:  63; 6HR MAX TEMP:  77;

FAIRFIELD *    CLEAR     59  48  67 W7        29.83S
FORT MADISON * CLEAR     63  50  63 W5        29.84F
KEOKUK *         N/A     61  50  67 W7        29.83F
OSKALOOSA *      N/A     57  46  67 W7        29.83F
OTTUMWA        CLEAR     57  47  69 W5        29.83F
6HR MIN TEMP:  56; 6HR MAX TEMP:  77;

$$

ABBREVIATIONS USED IN REMARKS
   TC - TEMPERATURES IN CELSIUS
  WCI - WIND CHILL INDEX
   HX - HEAT INDEX
  VSB - VISIBILITY
$$





USA.gov is the U.S. government's official web portal to all federal, state and local government web resources and services.